DAL691 KBOS-KMSP

Flight info

Callsign DAL691
Flight time 2h 57m
Altitude 40000
Route HYLND7 HYLND HANAA Q816 KELTI Q812 ZOHAN IDIOM MUSCL4
Aircraft A333/H-SDE3GHIJ2J3J5M1RVWXY/LB2D1

Departure

Time 2026-05-07 23:33
Airport Boston Logan International Airport (KBOS)

Arrival

Time 2026-05-08 02:30
Airport Minneapolis–Saint Paul International Airport / Wold–Chamberlain Field (KMSP)
Time Latitude Longitude Altitude Speed Heading
2026-05-07 23:09 42.36185 -71.01619 23 ft 0 kts 266°
2026-05-07 23:19 42.36185 -71.01605 23 ft 3 kts 266°
2026-05-07 23:20 42.36187 -71.01580 23 ft 1 kts 265°
2026-05-07 23:20 42.36188 -71.01565 23 ft 1 kts 258°
2026-05-07 23:20 42.36190 -71.01553 23 ft 1 kts 245°
2026-05-07 23:20 42.36192 -71.01548 23 ft 0 kts 240°
2026-05-07 23:21 42.36195 -71.01542 23 ft 1 kts 239°
2026-05-07 23:21 42.36199 -71.01532 23 ft 1 kts 238°
2026-05-07 23:21 42.36206 -71.01517 23 ft 2 kts 238°
2026-05-07 23:21 42.36209 -71.01510 23 ft 0 kts 234°
2026-05-07 23:22 42.36213 -71.01503 23 ft 1 kts 222°
2026-05-07 23:22 42.36221 -71.01495 24 ft 0 kts 205°
2026-05-07 23:22 42.36223 -71.01493 24 ft 0 kts 204°
2026-05-07 23:22 42.36228 -71.01490 24 ft 1 kts 204°
2026-05-07 23:23 42.36236 -71.01485 24 ft 1 kts 203°
2026-05-07 23:23 42.36244 -71.01481 24 ft 0 kts 203°
2026-05-07 23:25 42.36241 -71.01482 24 ft 3 kts 201°
2026-05-07 23:25 42.36207 -71.01482 24 ft 5 kts 165°
2026-05-07 23:25 42.36181 -71.01440 24 ft 6 kts 95°
2026-05-07 23:25 42.36214 -71.01392 24 ft 7 kts 30°
2026-05-07 23:26 42.36267 -71.01365 24 ft 8 kts 19°
2026-05-07 23:26 42.36314 -71.01329 24 ft 7 kts 62°
2026-05-07 23:26 42.36310 -71.01270 24 ft 5 kts 114°
2026-05-07 23:26 42.36276 -71.01187 24 ft 15 kts 119°
2026-05-07 23:27 42.36177 -71.00899 22 ft 18 kts 114°
2026-05-07 23:27 42.36126 -71.00742 20 ft 18 kts 112°
2026-05-07 23:27 42.36084 -71.00584 20 ft 17 kts 109°
2026-05-07 23:28 42.36045 -71.00430 20 ft 17 kts 109°
2026-05-07 23:28 42.36009 -71.00281 20 ft 16 kts 109°
2026-05-07 23:28 42.35973 -71.00139 20 ft 16 kts 111°
2026-05-07 23:28 42.35907 -71.00013 17 ft 17 kts 134°
2026-05-07 23:29 42.35823 -70.99901 17 ft 16 kts 135°
2026-05-07 23:29 42.35742 -70.99792 17 ft 16 kts 134°
2026-05-07 23:29 42.35665 -70.99688 17 ft 15 kts 135°
2026-05-07 23:29 42.35591 -70.99588 17 ft 14 kts 135°
2026-05-07 23:30 42.35520 -70.99495 17 ft 13 kts 135°
2026-05-07 23:30 42.35485 -70.99408 17 ft 9 kts 91°
2026-05-07 23:30 42.35488 -70.99387 17 ft 0 kts 76°
2026-05-07 23:31 42.35491 -70.99368 17 ft 6 kts 76°
2026-05-07 23:31 42.35509 -70.99297 17 ft 8 kts 58°
2026-05-07 23:31 42.35554 -70.99290 17 ft 6 kts 333°
2026-05-07 23:32 42.35596 -70.99337 17 ft 16 kts 317°
2026-05-07 23:32 42.35847 -70.99672 17 ft 84 kts 315°
2026-05-07 23:32 42.36417 -71.00437 20 ft 142 kts 314°
2026-05-07 23:32 42.37185 -71.01472 392 ft 160 kts 312°
2026-05-07 23:33 42.37811 -71.02628 1172 ft 152 kts 297°
2026-05-07 23:33 42.38446 -71.03710 1922 ft 150 kts 310°
2026-05-07 23:33 42.39065 -71.04843 2275 ft 158 kts 304°
2026-05-07 23:33 42.39684 -71.06157 2549 ft 173 kts 302°
2026-05-07 23:34 42.40327 -71.07622 2802 ft 190 kts 301°
2026-05-07 23:34 42.41029 -71.09240 3099 ft 211 kts 307°
2026-05-07 23:34 42.42229 -71.10471 3598 ft 227 kts 337°
2026-05-07 23:34 42.43729 -71.11218 4351 ft 231 kts 336°
2026-05-07 23:35 42.45150 -71.12158 5071 ft 233 kts 320°
2026-05-07 23:35 42.46099 -71.13927 5800 ft 237 kts 292°
2026-05-07 23:35 42.46626 -71.16034 6529 ft 241 kts 289°
2026-05-07 23:35 42.47074 -71.18196 7370 ft 239 kts 287°
2026-05-07 23:36 42.47516 -71.20322 8186 ft 238 kts 287°
2026-05-07 23:36 42.47979 -71.22470 9036 ft 237 kts 287°
2026-05-07 23:36 42.48449 -71.24584 9797 ft 238 kts 287°
2026-05-07 23:36 42.49120 -71.26636 10370 ft 249 kts 304°
2026-05-07 23:37 42.50531 -71.28157 10746 ft 275 kts 330°
2026-05-07 23:37 42.52494 -71.28723 11037 ft 307 kts 353°
2026-05-07 23:37 42.54708 -71.28695 11339 ft 328 kts 355°
2026-05-07 23:37 42.57045 -71.28602 11614 ft 348 kts 356°
2026-05-07 23:38 42.59533 -71.28477 11948 ft 365 kts 356°
2026-05-07 23:38 42.62103 -71.28346 12522 ft 373 kts 356°
2026-05-07 23:38 42.64693 -71.28213 13211 ft 377 kts 355°
2026-05-07 23:38 42.67328 -71.28078 13812 ft 384 kts 355°
2026-05-07 23:39 42.70043 -71.27941 14436 ft 390 kts 355°
2026-05-07 23:39 42.72756 -71.27898 14988 ft 390 kts 347°
2026-05-07 23:39 42.75307 -71.28821 15553 ft 376 kts 327°
2026-05-07 23:39 42.77412 -71.30810 16125 ft 364 kts 308°
2026-05-07 23:40 42.78966 -71.33435 16741 ft 354 kts 292°
2026-05-07 23:40 42.79774 -71.36534 17351 ft 346 kts 278°
2026-05-07 23:40 42.80385 -71.39708 18006 ft 349 kts 279°
2026-05-07 23:40 42.80993 -71.42910 18619 ft 351 kts 278°
2026-05-07 23:41 42.81599 -71.46130 19143 ft 356 kts 278°
2026-05-07 23:41 42.82211 -71.49367 19770 ft 357 kts 278°
2026-05-07 23:41 42.82825 -71.52651 20321 ft 359 kts 278°
2026-05-07 23:41 42.83449 -71.55978 20806 ft 363 kts 278°
2026-05-07 23:42 42.84067 -71.59294 21279 ft 366 kts 278°
2026-05-07 23:42 42.84697 -71.62666 21898 ft 365 kts 278°
2026-05-07 23:42 42.85318 -71.66003 22344 ft 368 kts 277°
2026-05-07 23:42 42.85954 -71.69426 22856 ft 371 kts 277°
2026-05-07 23:43 42.86587 -71.72834 23321 ft 373 kts 277°
2026-05-07 23:43 42.87215 -71.76227 23759 ft 376 kts 277°
2026-05-07 23:43 42.87854 -71.79684 24229 ft 378 kts 277°
2026-05-07 23:43 42.88504 -71.83205 24679 ft 381 kts 277°
2026-05-07 23:44 42.89145 -71.86690 25151 ft 382 kts 277°
2026-05-07 23:44 42.89795 -71.90226 25538 ft 386 kts 277°
2026-05-07 23:44 42.90445 -71.93778 25939 ft 389 kts 277°
2026-05-07 23:44 42.91103 -71.97363 26392 ft 390 kts 277°
2026-05-07 23:45 42.91757 -72.00942 26770 ft 394 kts 277°
2026-05-07 23:45 42.92417 -72.04556 27201 ft 396 kts 277°
2026-05-07 23:45 42.93080 -72.08200 27599 ft 398 kts 277°
2026-05-07 23:45 42.93750 -72.11889 27933 ft 402 kts 277°
2026-05-07 23:46 42.94423 -72.15598 28329 ft 403 kts 278°
2026-05-07 23:46 42.95095 -72.19316 28781 ft 404 kts 277°
2026-05-07 23:46 42.95757 -72.22971 29418 ft 399 kts 277°
2026-05-07 23:46 42.96421 -72.26649 30072 ft 395 kts 277°
2026-05-07 23:47 42.97073 -72.30273 30567 ft 394 kts 277°
2026-05-07 23:47 42.97727 -72.33931 30821 ft 398 kts 277°
2026-05-07 23:47 42.98378 -72.37560 31424 ft 392 kts 277°
2026-05-07 23:47 42.99014 -72.41110 31949 ft 388 kts 277°
2026-05-07 23:48 42.99661 -72.44735 32295 ft 389 kts 277°
2026-05-07 23:48 43.00295 -72.48304 32684 ft 388 kts 277°
2026-05-07 23:48 43.00931 -72.51884 33069 ft 386 kts 277°
2026-05-07 23:48 43.01568 -72.55463 33397 ft 385 kts 277°
2026-05-07 23:49 43.02194 -72.59003 33710 ft 385 kts 277°
2026-05-07 23:49 43.02827 -72.62589 33840 ft 386 kts 277°
2026-05-07 23:49 43.04103 -72.69827 34042 ft 387 kts 277°
2026-05-07 23:50 43.04731 -72.73398 34494 ft 383 kts 277°
2026-05-07 23:50 43.05349 -72.76921 34757 ft 384 kts 277°
2026-05-07 23:50 43.05978 -72.80521 35055 ft 384 kts 277°
2026-05-07 23:50 43.06593 -72.84043 35339 ft 383 kts 277°
2026-05-07 23:51 43.07216 -72.87610 35622 ft 383 kts 277°
2026-05-07 23:51 43.07835 -72.91175 35844 ft 384 kts 277°
2026-05-07 23:51 43.08453 -72.94733 36040 ft 385 kts 277°
2026-05-07 23:51 43.09068 -72.98286 36286 ft 385 kts 277°
2026-05-07 23:52 43.09682 -73.01839 36486 ft 386 kts 277°
2026-05-07 23:52 43.10302 -73.05421 36706 ft 386 kts 277°
2026-05-07 23:52 43.10920 -73.09023 36901 ft 386 kts 277°
2026-05-07 23:52 43.11531 -73.12564 37058 ft 388 kts 277°
2026-05-07 23:53 43.12147 -73.16161 37220 ft 389 kts 277°
2026-05-07 23:53 43.12761 -73.19750 37402 ft 389 kts 277°
2026-05-07 23:53 43.13380 -73.23367 37565 ft 390 kts 277°
2026-05-07 23:53 43.13995 -73.26978 37689 ft 391 kts 277°
2026-05-07 23:54 43.14610 -73.30589 37831 ft 391 kts 277°
2026-05-07 23:54 43.15228 -73.34227 37839 ft 389 kts 278°
2026-05-07 23:54 43.16443 -73.41406 37852 ft 388 kts 277°
2026-05-07 23:55 43.17650 -73.48571 37855 ft 391 kts 278°
2026-05-07 23:55 43.18866 -73.55806 37850 ft 390 kts 278°
2026-05-07 23:56 43.19928 -73.63060 37849 ft 386 kts 272°
2026-05-07 23:56 43.20466 -73.70372 37866 ft 386 kts 271°
2026-05-07 23:57 43.21007 -73.77650 37858 ft 385 kts 271°
2026-05-07 23:57 43.21545 -73.84958 37860 ft 392 kts 271°
2026-05-07 23:58 43.22095 -73.92480 37856 ft 400 kts 272°
2026-05-07 23:58 43.22649 -74.00107 37852 ft 406 kts 272°
2026-05-07 23:59 43.23202 -74.07801 37841 ft 410 kts 271°
2026-05-07 23:59 43.23758 -74.15625 37846 ft 413 kts 271°
2026-05-08 00:00 43.24309 -74.23434 37854 ft 414 kts 272°
2026-05-08 00:00 43.24852 -74.31210 37850 ft 410 kts 272°
2026-05-08 00:01 43.25166 -74.38954 37839 ft 409 kts 269°
2026-05-08 00:01 43.25362 -74.46749 37832 ft 410 kts 269°
2026-05-08 00:02 43.25565 -74.54529 37838 ft 410 kts 269°
2026-05-08 00:02 43.25764 -74.62372 37840 ft 411 kts 269°
2026-05-08 00:03 43.25956 -74.70161 37862 ft 410 kts 268°
2026-05-08 00:03 43.26144 -74.77952 37866 ft 411 kts 268°
2026-05-08 00:04 43.26327 -74.85783 37882 ft 412 kts 268°
2026-05-08 00:04 43.26505 -74.93615 37876 ft 412 kts 268°
2026-05-08 00:05 43.26678 -75.01483 37877 ft 412 kts 268°
2026-05-08 00:05 43.26846 -75.09332 37888 ft 413 kts 268°
2026-05-08 00:06 43.27007 -75.17162 37894 ft 413 kts 269°
2026-05-08 00:06 43.27164 -75.25024 37891 ft 413 kts 269°
2026-05-08 00:07 43.27316 -75.32889 37900 ft 414 kts 269°
2026-05-08 00:07 43.27464 -75.40810 37887 ft 415 kts 269°
2026-05-08 00:08 43.27603 -75.48722 37882 ft 417 kts 269°
2026-05-08 00:08 43.27740 -75.56624 37879 ft 416 kts 269°
2026-05-08 00:09 43.27871 -75.64514 37877 ft 415 kts 269°
2026-05-08 00:09 43.27996 -75.72459 37880 ft 415 kts 269°
2026-05-08 00:10 43.28115 -75.80325 37885 ft 416 kts 269°
2026-05-08 00:10 43.28232 -75.88301 37903 ft 417 kts 268°
2026-05-08 00:11 43.28340 -75.96247 37885 ft 418 kts 269°
2026-05-08 00:11 43.28444 -76.04203 37887 ft 419 kts 269°
2026-05-08 00:12 43.28542 -76.12174 37891 ft 419 kts 269°
2026-05-08 00:12 43.28636 -76.20173 37887 ft 420 kts 269°
2026-05-08 00:13 43.28724 -76.28168 37890 ft 420 kts 269°
2026-05-08 00:13 43.28806 -76.36150 37891 ft 420 kts 269°
2026-05-08 00:14 43.28883 -76.44146 37890 ft 418 kts 269°
2026-05-08 00:14 43.28952 -76.52152 37889 ft 420 kts 269°
2026-05-08 00:15 43.29019 -76.60117 37882 ft 419 kts 269°
2026-05-08 00:15 43.29101 -76.68115 37891 ft 419 kts 269°
2026-05-08 00:16 43.29230 -76.76105 37885 ft 420 kts 269°
2026-05-08 00:16 43.29352 -76.84124 37884 ft 421 kts 269°
2026-05-08 00:17 43.29468 -76.92127 37896 ft 421 kts 269°
2026-05-08 00:17 43.29577 -77.00123 37910 ft 421 kts 269°
2026-05-08 00:18 43.29681 -77.08120 37909 ft 422 kts 269°
2026-05-08 00:18 43.29781 -77.16207 37909 ft 422 kts 269°
2026-05-08 00:19 43.29874 -77.24269 37914 ft 422 kts 269°
2026-05-08 00:19 43.29961 -77.32267 37908 ft 422 kts 269°
2026-05-08 00:20 43.30043 -77.40319 37904 ft 421 kts 269°
2026-05-08 00:20 43.30120 -77.48355 37899 ft 421 kts 269°
2026-05-08 00:21 43.30190 -77.56363 37903 ft 422 kts 269°
2026-05-08 00:21 43.30256 -77.64399 37905 ft 422 kts 269°
2026-05-08 00:22 43.30315 -77.72456 37912 ft 423 kts 269°
2026-05-08 00:22 43.30370 -77.80533 37914 ft 423 kts 269°
2026-05-08 00:23 43.30416 -77.88591 37914 ft 422 kts 269°
2026-05-08 00:23 43.30460 -77.96630 37911 ft 423 kts 269°
2026-05-08 00:24 43.30497 -78.04714 37905 ft 424 kts 269°
2026-05-08 00:24 43.30528 -78.12779 37905 ft 423 kts 269°
2026-05-08 00:25 43.30327 -78.20826 37904 ft 423 kts 267°
2026-05-08 00:25 43.30114 -78.28930 37904 ft 423 kts 267°
2026-05-08 00:26 43.29901 -78.36965 37908 ft 422 kts 267°
2026-05-08 00:26 43.29682 -78.44997 37905 ft 423 kts 267°
2026-05-08 00:27 43.29458 -78.53068 37899 ft 424 kts 268°
2026-05-08 00:27 43.29226 -78.61128 37895 ft 423 kts 268°
2026-05-08 00:28 43.28992 -78.69155 37908 ft 422 kts 267°
2026-05-08 00:28 43.28750 -78.77172 37908 ft 424 kts 267°
2026-05-08 00:29 43.28503 -78.85272 37904 ft 424 kts 267°
2026-05-08 00:29 43.28251 -78.93336 37905 ft 424 kts 267°
2026-05-08 00:30 43.28329 -79.01434 37910 ft 425 kts 270°
2026-05-08 00:30 43.28428 -79.09507 37907 ft 424 kts 272°
2026-05-08 00:31 43.28867 -79.13495 37899 ft 426 kts 283°
2026-05-08 00:31 43.29908 -79.17330 37930 ft 428 kts 289°
2026-05-08 00:31 43.31917 -79.24986 37906 ft 428 kts 286°
2026-05-08 00:32 43.33789 -79.32687 37904 ft 427 kts 285°
2026-05-08 00:32 43.35651 -79.40456 37902 ft 428 kts 286°
2026-05-08 00:33 43.37500 -79.48200 37902 ft 428 kts 286°
2026-05-08 00:33 43.39341 -79.55942 37903 ft 427 kts 286°
2026-05-08 00:34 43.41184 -79.63723 37899 ft 426 kts 286°
2026-05-08 00:34 43.43008 -79.71450 37911 ft 427 kts 285°
2026-05-08 00:35 43.44838 -79.79221 37910 ft 426 kts 285°
2026-05-08 00:35 43.46652 -79.86955 37902 ft 426 kts 285°
2026-05-08 00:36 43.48462 -79.94701 37900 ft 426 kts 285°
2026-05-08 00:36 43.50270 -80.02463 37898 ft 427 kts 285°
2026-05-08 00:37 43.52065 -80.10197 37896 ft 426 kts 286°
2026-05-08 00:38 43.54757 -80.21853 37903 ft 427 kts 285°
2026-05-08 00:38 43.56556 -80.29668 37900 ft 427 kts 285°
2026-05-08 00:39 43.58348 -80.37485 37899 ft 427 kts 286°
2026-05-08 00:39 43.60124 -80.45262 37898 ft 428 kts 285°
2026-05-08 00:40 43.61901 -80.53073 37894 ft 428 kts 286°
2026-05-08 00:40 43.63973 -80.62216 37888 ft 427 kts 286°
2026-05-08 00:41 43.65446 -80.68729 37898 ft 427 kts 285°
2026-05-08 00:41 43.67507 -80.77891 37896 ft 428 kts 285°
2026-05-08 00:42 43.69254 -80.85687 37894 ft 427 kts 285°
2026-05-08 00:42 43.71009 -80.93536 37893 ft 427 kts 285°
2026-05-08 00:43 43.72751 -81.01369 37892 ft 427 kts 285°
2026-05-08 00:43 43.74203 -81.07909 37895 ft 428 kts 285°
2026-05-08 00:44 43.76234 -81.17100 37896 ft 430 kts 285°
2026-05-08 00:44 43.77972 -81.24996 37893 ft 429 kts 285°
2026-05-08 00:45 43.79706 -81.32906 37896 ft 429 kts 285°
2026-05-08 00:45 43.81426 -81.40774 37893 ft 430 kts 285°
2026-05-08 00:46 43.83145 -81.48669 37894 ft 430 kts 285°
2026-05-08 00:46 43.84863 -81.56593 37899 ft 430 kts 285°
2026-05-08 00:47 43.86581 -81.64547 37913 ft 430 kts 285°
2026-05-08 00:47 43.88288 -81.72482 37924 ft 431 kts 285°
2026-05-08 00:48 43.89997 -81.80450 37919 ft 431 kts 285°
2026-05-08 00:48 43.91700 -81.88424 37920 ft 431 kts 285°
2026-05-08 00:49 43.93389 -81.96360 37929 ft 433 kts 285°
2026-05-08 00:49 43.95084 -82.04356 37931 ft 432 kts 285°
2026-05-08 00:50 43.96770 -82.12339 37925 ft 430 kts 285°
2026-05-08 00:50 43.98434 -82.20293 37910 ft 431 kts 284°
2026-05-08 00:50 43.98880 -82.24425 37892 ft 431 kts 272°
2026-05-08 00:51 43.98618 -82.28571 37919 ft 432 kts 262°
2026-05-08 00:51 43.98131 -82.36839 37905 ft 432 kts 269°
2026-05-08 00:52 43.97964 -82.45114 37890 ft 431 kts 270°
2026-05-08 00:52 43.97823 -82.53469 37895 ft 431 kts 270°
2026-05-08 00:53 43.97682 -82.61729 37892 ft 430 kts 270°
2026-05-08 00:53 43.97535 -82.70022 37903 ft 430 kts 269°
2026-05-08 00:54 43.97382 -82.78352 37899 ft 431 kts 269°
2026-05-08 00:54 43.97224 -82.86611 37896 ft 430 kts 269°
2026-05-08 00:55 43.97060 -82.94882 37890 ft 430 kts 269°
2026-05-08 00:55 43.96889 -83.03207 37893 ft 431 kts 270°
2026-05-08 00:56 43.96712 -83.11485 37887 ft 431 kts 269°
2026-05-08 00:56 43.96528 -83.19830 37884 ft 432 kts 269°
2026-05-08 00:57 43.96339 -83.28136 37885 ft 431 kts 269°
2026-05-08 00:57 43.96143 -83.36416 37884 ft 430 kts 270°
2026-05-08 00:58 43.95943 -83.44714 37884 ft 430 kts 270°
2026-05-08 00:58 43.95736 -83.53002 37886 ft 430 kts 270°
2026-05-08 00:59 43.95524 -83.61271 37885 ft 429 kts 270°
2026-05-08 00:59 43.95305 -83.69535 37897 ft 430 kts 269°
2026-05-08 01:00 43.95081 -83.77813 37900 ft 430 kts 269°
2026-05-08 01:00 43.94850 -83.86101 37901 ft 430 kts 269°
2026-05-08 01:01 43.94613 -83.94377 37907 ft 431 kts 269°
2026-05-08 01:01 43.94372 -84.02647 37906 ft 430 kts 269°
2026-05-08 01:02 43.94123 -84.10912 37914 ft 430 kts 269°
2026-05-08 01:02 43.93868 -84.19222 37913 ft 429 kts 269°
2026-05-08 01:03 43.93610 -84.27423 37905 ft 428 kts 269°
2026-05-08 01:03 43.93343 -84.35698 37906 ft 428 kts 269°
2026-05-08 01:04 43.94002 -84.43767 37931 ft 425 kts 285°
2026-05-08 01:04 43.95401 -84.51740 37906 ft 427 kts 283°
2026-05-08 01:05 43.96723 -84.59769 37904 ft 425 kts 283°
2026-05-08 01:05 43.98025 -84.67780 37911 ft 425 kts 282°
2026-05-08 01:06 43.99315 -84.75751 37906 ft 425 kts 282°
2026-05-08 01:06 44.00600 -84.83733 37903 ft 424 kts 282°
2026-05-08 01:07 44.01885 -84.91760 37901 ft 424 kts 283°
2026-05-08 01:07 44.03160 -84.99751 37904 ft 426 kts 283°
2026-05-08 01:08 44.04428 -85.07746 37904 ft 426 kts 283°
2026-05-08 01:08 44.05701 -85.15810 37897 ft 426 kts 283°
2026-05-08 01:09 44.06960 -85.23825 37896 ft 425 kts 283°
2026-05-08 01:09 44.08212 -85.31833 37902 ft 425 kts 283°
2026-05-08 01:10 44.09460 -85.39854 37898 ft 426 kts 283°
2026-05-08 01:10 44.10712 -85.47940 37905 ft 425 kts 283°
2026-05-08 01:11 44.11950 -85.55978 37905 ft 425 kts 283°
2026-05-08 01:11 44.13183 -85.64026 37905 ft 424 kts 283°
2026-05-08 01:12 44.14410 -85.72068 37912 ft 425 kts 282°
2026-05-08 01:12 44.15628 -85.80089 37917 ft 424 kts 282°
2026-05-08 01:13 44.16836 -85.88097 37918 ft 423 kts 282°
2026-05-08 01:13 44.18041 -85.96111 37914 ft 424 kts 282°
2026-05-08 01:14 44.19246 -86.04177 37917 ft 425 kts 282°
2026-05-08 01:14 44.20444 -86.12235 37917 ft 424 kts 282°
2026-05-08 01:15 44.21629 -86.20244 37933 ft 424 kts 282°
2026-05-08 01:15 44.22817 -86.28314 37922 ft 423 kts 282°
2026-05-08 01:16 44.23992 -86.36339 37918 ft 424 kts 282°
2026-05-08 01:16 44.25163 -86.44376 37918 ft 424 kts 282°
2026-05-08 01:17 44.26334 -86.52465 37901 ft 424 kts 282°
2026-05-08 01:17 44.27494 -86.60511 37901 ft 423 kts 282°
2026-05-08 01:18 44.28648 -86.68555 37919 ft 423 kts 282°
2026-05-08 01:18 44.29791 -86.76572 37920 ft 422 kts 281°
2026-05-08 01:19 44.30931 -86.84604 37894 ft 423 kts 281°
2026-05-08 01:19 44.32065 -86.92645 37900 ft 423 kts 282°
2026-05-08 01:20 44.33200 -87.00729 37906 ft 424 kts 282°
2026-05-08 01:20 44.34320 -87.08747 37898 ft 421 kts 282°
2026-05-08 01:21 44.35438 -87.16805 37902 ft 423 kts 282°
2026-05-08 01:21 44.36554 -87.24882 37893 ft 424 kts 282°
2026-05-08 01:22 44.37660 -87.32934 37885 ft 423 kts 282°
2026-05-08 01:22 44.38759 -87.40990 37879 ft 423 kts 282°
2026-05-08 01:23 44.39858 -87.49088 37886 ft 423 kts 282°
2026-05-08 01:23 44.40947 -87.57137 37883 ft 423 kts 282°
2026-05-08 01:24 44.42038 -87.65269 37878 ft 424 kts 281°
2026-05-08 01:24 44.43116 -87.73334 37890 ft 424 kts 281°
2026-05-08 01:25 44.44194 -87.81460 37880 ft 424 kts 281°
2026-05-08 01:25 44.45262 -87.89536 37896 ft 424 kts 281°
2026-05-08 01:26 44.46327 -87.97653 37896 ft 424 kts 281°
2026-05-08 01:26 44.47390 -88.05798 37897 ft 424 kts 281°
2026-05-08 01:27 44.48446 -88.13933 37904 ft 425 kts 281°
2026-05-08 01:27 44.49491 -88.22047 37899 ft 425 kts 281°
2026-05-08 01:28 44.50541 -88.30199 37903 ft 425 kts 282°
2026-05-08 01:28 44.52304 -88.38090 37907 ft 424 kts 289°
2026-05-08 01:29 44.54107 -88.45985 37898 ft 425 kts 288°
2026-05-08 01:29 44.55879 -88.53885 37897 ft 424 kts 288°
2026-05-08 01:30 44.57641 -88.61796 37906 ft 425 kts 288°
2026-05-08 01:30 44.59390 -88.69682 37909 ft 424 kts 288°
2026-05-08 01:31 44.61136 -88.77577 37915 ft 425 kts 288°
2026-05-08 01:31 44.62878 -88.85496 37918 ft 423 kts 288°
2026-05-08 01:32 44.64602 -88.93356 37904 ft 423 kts 288°
2026-05-08 01:32 44.66324 -89.01234 37893 ft 423 kts 288°
2026-05-08 01:33 44.68049 -89.09155 37891 ft 425 kts 288°
2026-05-08 01:33 44.69770 -89.17092 37893 ft 424 kts 288°
2026-05-08 01:34 44.71480 -89.25007 37889 ft 424 kts 288°
2026-05-08 01:34 44.73191 -89.32951 37888 ft 425 kts 288°
2026-05-08 01:35 44.74905 -89.40944 37896 ft 426 kts 288°
2026-05-08 01:35 44.76601 -89.48891 37898 ft 426 kts 288°
2026-05-08 01:36 44.78300 -89.56869 37888 ft 425 kts 288°
2026-05-08 01:36 44.80000 -89.64889 37894 ft 427 kts 288°
2026-05-08 01:37 44.81694 -89.72913 37900 ft 428 kts 288°
2026-05-08 01:37 44.83378 -89.80918 37888 ft 427 kts 287°
2026-05-08 01:38 44.85052 -89.88913 37893 ft 427 kts 287°
2026-05-08 01:38 44.86722 -89.96914 37884 ft 425 kts 287°
2026-05-08 01:39 44.88395 -90.04957 37896 ft 427 kts 288°
2026-05-08 01:39 44.89481 -90.13171 37900 ft 428 kts 279°
2026-05-08 01:40 44.90201 -90.21518 37882 ft 428 kts 279°
2026-05-08 01:40 44.90928 -90.29838 37887 ft 429 kts 279°
2026-05-08 01:41 44.91639 -90.38023 37880 ft 415 kts 279°
2026-05-08 01:41 44.92334 -90.46102 37871 ft 414 kts 280°
2026-05-08 01:42 44.93027 -90.54218 37880 ft 418 kts 279°
2026-05-08 01:42 44.93704 -90.62236 37337 ft 408 kts 280°
2026-05-08 01:42 44.94035 -90.66167 36697 ft 408 kts 279°
2026-05-08 01:43 44.94365 -90.70132 36157 ft 404 kts 280°
2026-05-08 01:43 44.94695 -90.74044 35613 ft 400 kts 280°
2026-05-08 01:43 44.95021 -90.77956 34958 ft 400 kts 280°
2026-05-08 01:43 44.95340 -90.81780 34312 ft 398 kts 280°
2026-05-08 01:44 44.95660 -90.85646 33702 ft 395 kts 281°
2026-05-08 01:44 44.95979 -90.89497 33069 ft 395 kts 281°
2026-05-08 01:44 44.96296 -90.93371 32329 ft 395 kts 281°
2026-05-08 01:44 44.96611 -90.97223 31480 ft 396 kts 281°
2026-05-08 01:45 44.96928 -91.01123 30768 ft 392 kts 281°
2026-05-08 01:45 44.97233 -91.04892 30137 ft 387 kts 282°
2026-05-08 01:45 44.97540 -91.08652 29457 ft 384 kts 281°
2026-05-08 01:45 44.97841 -91.12400 28708 ft 382 kts 281°
2026-05-08 01:46 44.98134 -91.16048 28049 ft 378 kts 281°
2026-05-08 01:46 44.98428 -91.19750 27363 ft 375 kts 281°
2026-05-08 01:46 44.98718 -91.23392 26668 ft 373 kts 281°
2026-05-08 01:46 44.99002 -91.26981 26012 ft 370 kts 281°
2026-05-08 01:47 44.99285 -91.30553 25358 ft 366 kts 281°
2026-05-08 01:47 44.99565 -91.34140 24716 ft 363 kts 281°
2026-05-08 01:47 44.99838 -91.37627 24012 ft 362 kts 281°
2026-05-08 01:48 45.00380 -91.44622 22974 ft 348 kts 281°
2026-05-08 01:48 45.00636 -91.47957 22669 ft 337 kts 281°
2026-05-08 01:48 45.00887 -91.51217 21931 ft 340 kts 281°
2026-05-08 01:48 45.01140 -91.54504 21349 ft 336 kts 281°
2026-05-08 01:49 45.01388 -91.57783 20845 ft 332 kts 281°
2026-05-08 01:49 45.01630 -91.60967 20259 ft 330 kts 280°
2026-05-08 01:49 45.01872 -91.64161 19646 ft 329 kts 281°
2026-05-08 01:49 45.02113 -91.67376 19099 ft 326 kts 279°
2026-05-08 01:50 45.02349 -91.70521 18573 ft 323 kts 280°
2026-05-08 01:50 45.02586 -91.73684 18011 ft 321 kts 280°
2026-05-08 01:50 45.02816 -91.76784 17503 ft 319 kts 280°
2026-05-08 01:50 45.03045 -91.79868 16990 ft 317 kts 280°
2026-05-08 01:51 45.03277 -91.82996 16930 ft 320 kts 280°
2026-05-08 01:51 45.03506 -91.86118 17077 ft 322 kts 280°
2026-05-08 01:51 45.03733 -91.89233 16948 ft 316 kts 280°
2026-05-08 01:51 45.03956 -91.92281 16632 ft 311 kts 280°
2026-05-08 01:52 45.04176 -91.95295 16064 ft 311 kts 280°
2026-05-08 01:52 45.04396 -91.98334 15493 ft 311 kts 280°
2026-05-08 01:52 45.04615 -92.01372 14979 ft 309 kts 280°
2026-05-08 01:52 45.04829 -92.04353 14495 ft 306 kts 280°
2026-05-08 01:53 45.05044 -92.07350 13973 ft 305 kts 280°
2026-05-08 01:53 45.05256 -92.10310 13489 ft 303 kts 280°
2026-05-08 01:53 45.05464 -92.13232 13032 ft 300 kts 279°
2026-05-08 01:53 45.05671 -92.16147 12563 ft 298 kts 279°
2026-05-08 01:54 45.05876 -92.19040 12083 ft 296 kts 279°
2026-05-08 01:54 45.06002 -92.21941 11575 ft 298 kts 271°
2026-05-08 01:54 45.05600 -92.24815 11104 ft 300 kts 261°
2026-05-08 01:54 45.05118 -92.27663 10657 ft 297 kts 262°
2026-05-08 01:55 45.04662 -92.30466 10210 ft 295 kts 262°
2026-05-08 01:55 45.04216 -92.33248 9980 ft 285 kts 262°
2026-05-08 01:55 45.03792 -92.35900 9997 ft 269 kts 262°
2026-05-08 01:55 45.03394 -92.38414 9951 ft 256 kts 263°
2026-05-08 01:56 45.03013 -92.40826 9750 ft 250 kts 263°
2026-05-08 01:56 45.02639 -92.43212 9416 ft 249 kts 263°
2026-05-08 01:56 45.02261 -92.45610 9078 ft 249 kts 262°
2026-05-08 01:56 45.01886 -92.47986 8758 ft 249 kts 262°
2026-05-08 01:57 45.01512 -92.50347 8459 ft 247 kts 262°
2026-05-08 01:57 45.01138 -92.52708 8153 ft 247 kts 262°
2026-05-08 01:57 45.00764 -92.55067 7833 ft 246 kts 262°
2026-05-08 01:57 45.00280 -92.57389 7507 ft 250 kts 248°
2026-05-08 01:58 44.99143 -92.59285 7178 ft 258 kts 225°
2026-05-08 01:58 44.97791 -92.60947 6983 ft 257 kts 229°
2026-05-08 01:58 44.96498 -92.62676 7011 ft 256 kts 229°
2026-05-08 01:58 44.95221 -92.64411 6990 ft 256 kts 230°
2026-05-08 01:59 44.93949 -92.66149 6996 ft 256 kts 229°
2026-05-08 01:59 44.92661 -92.67910 6989 ft 257 kts 229°
2026-05-08 01:59 44.91392 -92.69646 6998 ft 256 kts 229°
2026-05-08 01:59 44.90120 -92.71381 6951 ft 247 kts 229°
2026-05-08 02:00 44.88929 -92.73003 6969 ft 236 kts 229°
2026-05-08 02:00 44.87774 -92.74580 6963 ft 226 kts 229°
2026-05-08 02:00 44.86644 -92.76125 6994 ft 225 kts 230°
2026-05-08 02:00 44.85529 -92.77645 7001 ft 225 kts 230°
2026-05-08 02:01 44.84398 -92.79183 6999 ft 225 kts 229°
2026-05-08 02:01 44.83266 -92.80724 6999 ft 226 kts 230°
2026-05-08 02:01 44.82132 -92.82269 7000 ft 226 kts 230°
2026-05-08 02:01 44.81007 -92.83798 6999 ft 226 kts 230°
2026-05-08 02:02 44.79877 -92.85332 7000 ft 227 kts 230°
2026-05-08 02:02 44.78738 -92.86882 7005 ft 233 kts 230°
2026-05-08 02:02 44.77519 -92.88573 7046 ft 256 kts 230°
2026-05-08 02:02 44.76227 -92.90385 6999 ft 260 kts 230°
2026-05-08 02:03 44.75002 -92.92204 6999 ft 255 kts 239°
2026-05-08 02:03 44.74350 -92.94460 7006 ft 245 kts 266°
2026-05-08 02:03 44.74420 -92.96710 6982 ft 225 kts 289°
2026-05-08 02:03 44.75172 -92.98544 6974 ft 210 kts 308°
2026-05-08 02:04 44.76298 -92.99852 6665 ft 212 kts 327°
2026-05-08 02:04 44.77608 -93.00835 6294 ft 214 kts 329°
2026-05-08 02:04 44.78912 -93.01798 5980 ft 213 kts 327°
2026-05-08 02:04 44.79977 -93.03198 5615 ft 210 kts 302°
2026-05-08 02:05 44.80730 -93.04965 5291 ft 210 kts 301°
2026-05-08 02:05 44.81485 -93.06692 4990 ft 209 kts 301°
2026-05-08 02:05 44.82247 -93.08439 4670 ft 209 kts 301°
2026-05-08 02:05 44.83001 -93.10164 4368 ft 208 kts 301°
2026-05-08 02:06 44.83762 -93.11910 4046 ft 208 kts 302°
2026-05-08 02:06 44.84523 -93.13647 3733 ft 208 kts 301°
2026-05-08 02:06 44.85281 -93.15386 3474 ft 208 kts 301°
2026-05-08 02:06 44.86046 -93.17146 2857 ft 221 kts 301°
2026-05-08 02:07 44.86854 -93.19003 2023 ft 237 kts 301°
2026-05-08 02:07 44.87814 -93.21168 2262 ft 271 kts 302°
2026-05-08 02:07 44.88836 -93.23380 3467 ft 275 kts 303°
2026-05-08 02:07 44.89957 -93.25799 3882 ft 329 kts 303°
2026-05-08 02:08 44.91188 -93.28458 5891 ft 324 kts 303°
2026-05-08 02:08 44.92432 -93.31152 6847 ft 352 kts 303°
2026-05-08 02:08 44.93714 -93.33939 8449 ft 354 kts 303°
2026-05-08 02:08 44.95023 -93.36802 9491 ft 351 kts 303°
2026-05-08 02:09 44.96349 -93.39726 9047 ft 353 kts 303°
2026-05-08 02:09 44.97507 -93.42738 9922 ft 354 kts 294°
2026-05-08 02:09 44.98094 -93.46093 10833 ft 355 kts 280°
2026-05-08 02:09 44.97891 -93.49487 11862 ft 345 kts 256°
2026-05-08 02:10 44.96639 -93.52216 12146 ft 338 kts 233°
2026-05-08 02:10 44.94574 -93.54081 10209 ft 390 kts 206°
2026-05-08 02:10 44.91927 -93.54922 9336 ft 396 kts 189°
2026-05-08 02:10 44.89188 -93.54662 8614 ft 396 kts 171°
2026-05-08 02:11 44.86655 -93.53119 8520 ft 404 kts 147°
2026-05-08 02:11 44.84592 -93.50503 8724 ft 404 kts 134°
2026-05-08 02:11 44.82835 -93.47353 8781 ft 408 kts 123°
2026-05-08 02:11 44.81739 -93.43746 8866 ft 407 kts 100°
2026-05-08 02:12 44.81684 -93.39826 8466 ft 393 kts 84°
2026-05-08 02:12 44.81953 -93.36111 7411 ft 376 kts 80°
2026-05-08 02:12 44.82255 -93.32559 6559 ft 357 kts 92°
2026-05-08 02:12 44.81630 -93.29368 6101 ft 335 kts 116°
2026-05-08 02:13 44.80625 -93.26470 5446 ft 322 kts 116°
2026-05-08 02:13 44.79564 -93.23749 4719 ft 314 kts 122°
2026-05-08 02:13 44.78441 -93.21230 4133 ft 302 kts 122°
2026-05-08 02:13 44.77349 -93.18787 3658 ft 290 kts 122°
2026-05-08 02:14 44.76304 -93.16447 3346 ft 272 kts 122°
2026-05-08 02:14 44.75351 -93.14295 3310 ft 249 kts 122°
2026-05-08 02:14 44.74475 -93.12292 3192 ft 233 kts 121°
2026-05-08 02:14 44.73656 -93.10396 2938 ft 226 kts 121°
2026-05-08 02:15 44.72850 -93.08521 2943 ft 215 kts 121°
2026-05-08 02:15 44.72072 -93.06712 3025 ft 218 kts 121°
2026-05-08 02:15 44.71299 -93.04917 3013 ft 207 kts 121°
2026-05-08 02:15 44.70558 -93.03199 2983 ft 204 kts 121°
2026-05-08 02:16 44.69716 -93.01636 2981 ft 203 kts 143°
2026-05-08 02:16 44.68535 -93.00520 3024 ft 202 kts 150°
2026-05-08 02:16 44.67342 -92.99479 2995 ft 203 kts 150°
2026-05-08 02:16 44.66150 -92.98442 3002 ft 203 kts 150°
2026-05-08 02:17 44.64939 -92.97393 3002 ft 203 kts 150°
2026-05-08 02:17 44.63749 -92.96362 3002 ft 203 kts 150°
2026-05-08 02:17 44.62532 -92.95309 3006 ft 204 kts 150°
2026-05-08 02:17 44.61263 -92.94528 2995 ft 200 kts 174°
2026-05-08 02:18 44.59875 -92.94338 3023 ft 200 kts 179°
2026-05-08 02:18 44.58503 -92.94205 3000 ft 197 kts 179°
2026-05-08 02:18 44.57160 -92.94079 2985 ft 190 kts 179°
2026-05-08 02:18 44.55851 -92.93951 3004 ft 189 kts 178°
2026-05-08 02:19 44.54614 -92.93321 2992 ft 194 kts 139°
2026-05-08 02:19 44.53923 -92.91747 3036 ft 193 kts 97°
2026-05-08 02:19 44.54091 -92.89950 3023 ft 187 kts 56°
2026-05-08 02:19 44.55025 -92.88783 3029 ft 177 kts 13°
2026-05-08 02:20 44.56216 -92.88700 3070 ft 171 kts 349°
2026-05-08 02:20 44.57396 -92.88977 3023 ft 171 kts 347°
2026-05-08 02:20 44.58573 -92.89270 3032 ft 170 kts 347°
2026-05-08 02:20 44.59741 -92.89560 3031 ft 172 kts 347°
2026-05-08 02:21 44.60905 -92.89846 3031 ft 172 kts 347°
2026-05-08 02:21 44.62086 -92.90138 3031 ft 171 kts 347°
2026-05-08 02:21 44.63257 -92.90424 3036 ft 171 kts 347°
2026-05-08 02:21 44.64438 -92.90708 3032 ft 171 kts 347°
2026-05-08 02:22 44.65606 -92.91058 3028 ft 172 kts 341°
2026-05-08 02:22 44.66754 -92.91542 3023 ft 171 kts 340°
2026-05-08 02:22 44.67880 -92.92020 3040 ft 170 kts 340°
2026-05-08 02:22 44.68988 -92.92487 3157 ft 157 kts 340°
2026-05-08 02:23 44.70032 -92.92948 3287 ft 155 kts 335°
2026-05-08 02:23 44.70998 -92.93610 3440 ft 154 kts 330°
2026-05-08 02:23 44.71917 -92.94271 3625 ft 144 kts 330°
2026-05-08 02:23 44.72803 -92.94897 3743 ft 141 kts 330°
2026-05-08 02:24 44.73668 -92.95498 3876 ft 140 kts 330°
2026-05-08 02:24 44.74543 -92.96102 4023 ft 139 kts 330°
2026-05-08 02:24 44.75414 -92.96696 4165 ft 139 kts 330°
2026-05-08 02:24 44.76289 -92.97287 4278 ft 140 kts 330°
2026-05-08 02:25 44.77174 -92.97886 4280 ft 140 kts 330°
2026-05-08 02:25 44.77960 -92.98653 4183 ft 138 kts 305°
2026-05-08 02:25 44.78462 -92.99799 4112 ft 137 kts 300°
2026-05-08 02:25 44.78965 -93.00953 3932 ft 137 kts 302°
2026-05-08 02:26 44.79471 -93.02091 3759 ft 137 kts 302°
2026-05-08 02:26 44.79956 -93.03204 3584 ft 133 kts 302°
2026-05-08 02:26 44.80435 -93.04296 3406 ft 132 kts 302°
2026-05-08 02:26 44.80919 -93.05399 3238 ft 132 kts 302°
2026-05-08 02:27 44.81399 -93.06496 3064 ft 132 kts 301°
2026-05-08 02:27 44.81880 -93.07594 2888 ft 131 kts 301°
2026-05-08 02:27 44.82364 -93.08700 2708 ft 132 kts 301°
2026-05-08 02:27 44.82843 -93.09796 2531 ft 132 kts 301°
2026-05-08 02:28 44.83324 -93.10898 2348 ft 131 kts 301°
2026-05-08 02:28 44.83803 -93.11996 2171 ft 132 kts 300°
2026-05-08 02:28 44.84284 -93.13096 1994 ft 132 kts 300°
2026-05-08 02:28 44.84773 -93.14217 1808 ft 133 kts 300°
2026-05-08 02:29 44.85260 -93.15334 1628 ft 135 kts 301°
2026-05-08 02:29 44.85745 -93.16447 1449 ft 135 kts 301°
2026-05-08 02:29 44.86256 -93.17615 1298 ft 137 kts 301°
2026-05-08 02:29 44.86751 -93.18735 1103 ft 138 kts 301°
2026-05-08 02:30 44.87257 -93.19872 930 ft 136 kts 301°
2026-05-08 02:30 44.87751 -93.21000 824 ft 128 kts 299°
2026-05-08 02:30 44.88111 -93.21864 831 ft 77 kts 301°
2026-05-08 02:30 44.88255 -93.22198 835 ft 26 kts 299°
2026-05-08 02:31 44.88341 -93.22395 837 ft 22 kts 298°
2026-05-08 02:31 44.88423 -93.22431 837 ft 14 kts 19°
2026-05-08 02:31 44.88443 -93.22412 837 ft 0 kts 43°
2026-05-08 02:32 44.88445 -93.22407 837 ft 4 kts 55°
2026-05-08 02:32 44.88435 -93.22325 837 ft 10 kts 117°
2026-05-08 02:33 44.88398 -93.22235 837 ft 10 kts 121°
2026-05-08 02:33 44.88358 -93.22140 836 ft 12 kts 122°
2026-05-08 02:33 44.88310 -93.22032 834 ft 13 kts 122°
2026-05-08 02:33 44.88251 -93.21895 832 ft 18 kts 121°
2026-05-08 02:34 44.88177 -93.21724 830 ft 22 kts 122°
2026-05-08 02:34 44.88098 -93.21542 830 ft 21 kts 121°
2026-05-08 02:34 44.88023 -93.21362 828 ft 10 kts 112°
2026-05-08 02:34 44.88012 -93.21274 827 ft 8 kts 76°
2026-05-08 02:35 44.88017 -93.21202 827 ft 6 kts 84°
2026-05-08 02:35 44.88023 -93.21141 826 ft 5 kts 72°
2026-05-08 02:35 44.88050 -93.21101 826 ft 5 kts 36°
2026-05-08 02:35 44.88061 -93.21092 825 ft 0 kts 32°